When you browse on this site, cookies collect data to enhance your experience and personalize the content and advertising you see.
Visit our Privacy Policy to learn more. By continuing to use the site, you agree to this use of cookies and data.
  • In Hungary
  • List of Countries
  • For 7 days
  • Water Temperature
  • Weather Map
  • News
  • Weather Widgets
  • user-avatar
    Login

    Hourly Weather Gjirokaster

    Today, 15 September, Sunday

    Time Temperature Precipitation Wind Pressure Humidity
    00:00 +14°C° 0 mm 2 mps 657 mmHg 45%
    01:00 +14°C° 0 mm 2 mps 657 mmHg 44%
    02:00 +14°C° 0 mm 2 mps 657 mmHg 44%
    03:00 +14°C° 0 mm 2 mps 657 mmHg 45%
    04:00 +13°C° 0 mm 1 mps 657 mmHg 46%
    05:00 +14°C° 0 mm 2 mps 657 mmHg 46%
    06:00 +15°C° 0 mm 2 mps 658 mmHg 45%
    07:00 +16°C° 0 mm 2 mps 658 mmHg 45%
    08:00 +19°C° 0 mm 1 mps 659 mmHg 41%
    09:00 +21°C° 0 mm 1 mps 659 mmHg 36%
    10:00 +23°C° 0 mm 1 mps 660 mmHg 32%
    11:00 +24°C° 0 mm 1 mps 660 mmHg 31%
    12:00 +24°C° 0 mm 2 mps 660 mmHg 31%
    13:00 +25°C° 0 mm 2 mps 660 mmHg 30%
    14:00 +24°C° 0 mm 2 mps 659 mmHg 32%
    15:00 +22°C° 0 mm 3 mps 658 mmHg 34%
    16:00 +21°C° 0 mm 3 mps 658 mmHg 36%
    17:00 +20°C° 0 mm 3 mps 657 mmHg 41%
    18:00 +18°C° 0 mm 2 mps 657 mmHg 47%
    19:00 +16°C° 0 mm 2 mps 657 mmHg 52%
    20:00 +16°C° 0 mm 1 mps 657 mmHg 53%
    21:00 +15°C° 0 mm 1 mps 656 mmHg 54%
    22:00 +15°C° 0 mm 1 mps 656 mmHg 56%
    23:00 +15°C° 0 mm 1 mps 656 mmHg 56%

    Tomorrow, 16 September, Monday

    Time Temperature Precipitation Wind Pressure Humidity
    00:00 +15°C° 0 mm 1 mps 656 mmHg 56%
    01:00 +14°C° 0 mm 1 mps 656 mmHg 56%
    02:00 +14°C° 0 mm 1 mps 656 mmHg 56%
    03:00 +14°C° 0 mm 1 mps 655 mmHg 56%
    04:00 +14°C° 0 mm 1 mps 655 mmHg 56%
    05:00 +15°C° 0 mm 1 mps 655 mmHg 53%
    06:00 +16°C° 0 mm 1 mps 655 mmHg 50%
    07:00 +18°C° 0 mm 1 mps 655 mmHg 46%
    08:00 +20°C° 0 mm 1 mps 656 mmHg 42%
    09:00 +21°C° 0 mm 1 mps 656 mmHg 39%
    10:00 +23°C° 0 mm 1 mps 657 mmHg 35%
    11:00 +24°C° 0 mm 2 mps 657 mmHg 34%
    12:00 +24°C° 0 mm 2 mps 656 mmHg 34%
    13:00 +24°C° 0 mm 3 mps 656 mmHg 34%
    14:00 +24°C° 0 mm 3 mps 656 mmHg 38%
    15:00 +22°C° 0 mm 3 mps 655 mmHg 42%
    16:00 +21°C° 0 mm 3 mps 655 mmHg 46%
    17:00 +19°C° 0 mm 3 mps 654 mmHg 53%
    18:00 +18°C° 0 mm 2 mps 654 mmHg 61%
    19:00 +16°C° 0 mm 2 mps 654 mmHg 69%
    20:00 +16°C° 0 mm 1 mps 654 mmHg 69%
    21:00 +15°C° 0 mm 1 mps 653 mmHg 70%
    22:00 +15°C° 0 mm 1 mps 653 mmHg 70%
    23:00 +14°C° 0 mm 1 mps 653 mmHg 70%

    Day after tomorrow, 17 September, Tuesday

    Time Temperature Precipitation Wind Pressure Humidity
    00:00 +14°C° 0 mm 1 mps 653 mmHg 70%
    01:00 +14°C° 0 mm 1 mps 653 mmHg 70%
    02:00 +13°C° 0 mm 1 mps 653 mmHg 70%
    03:00 +13°C° 0 mm 1 mps 652 mmHg 71%
    04:00 +13°C° 0 mm 1 mps 652 mmHg 71%
    05:00 +14°C° 0 mm 1 mps 652 mmHg 67%
    06:00 +15°C° 0 mm 1 mps 653 mmHg 62%
    07:00 +16°C° 0 mm 1 mps 653 mmHg 58%
    08:00 +19°C° 0 mm 1 mps 654 mmHg 51%
    09:00 +21°C° 0 mm 1 mps 654 mmHg 43%
    10:00 +23°C° 0 mm 1 mps 655 mmHg 36%
    11:00 +23°C° 0 mm 1 mps 655 mmHg 34%
    12:00 +24°C° 0 mm 2 mps 655 mmHg 33%
    13:00 +24°C° 0 mm 2 mps 654 mmHg 31%
    14:00 +24°C° 0 mm 2 mps 654 mmHg 35%
    15:00 +23°C° 0 mm 2 mps 654 mmHg 38%
    16:00 +21°C° 0 mm 3 mps 653 mmHg 42%
    17:00 +19°C° 0 mm 2 mps 653 mmHg 49%
    18:00 +18°C° 0 mm 1 mps 652 mmHg 57%
    19:00 +15°C° 0 mm 1 mps 652 mmHg 64%
    20:00 +15°C° 0 mm 1 mps 652 mmHg 64%
    21:00 +15°C° 0 mm 1 mps 652 mmHg 65%
    22:00 +14°C° 0 mm 1 mps 652 mmHg 66%
    23:00 +13°C° 0 mm 0 mps 652 mmHg 66%

    18 September, Wednesday

    Time Temperature Precipitation Wind Pressure Humidity
    00:00 +13°C° 0 mm 0 mps 652 mmHg 65%
    01:00 +12°C° 0 mm 0 mps 652 mmHg 65%
    02:00 +12°C° 0 mm 0 mps 651 mmHg 64%
    03:00 +12°C° 0 mm 0 mps 651 mmHg 63%
    04:00 +11°C° 0 mm 0 mps 651 mmHg 63%
    05:00 +13°C° 0 mm 0 mps 651 mmHg 58%
    06:00 +14°C° 0 mm 0 mps 652 mmHg 53%
    07:00 +15°C° 0 mm 0 mps 652 mmHg 49%
    08:00 +19°C° 0 mm 1 mps 653 mmHg 44%
    09:00 +21°C° 0 mm 1 mps 654 mmHg 40%
    10:00 +21°C° 0 mm 2 mps 654 mmHg 35%
    11:00 +23°C° 0 mm 2 mps 654 mmHg 36%
    12:00 +23°C° 0 mm 2 mps 654 mmHg 36%
    13:00 +24°C° 0 mm 2 mps 654 mmHg 37%
    14:00 +23°C° 0 mm 2 mps 653 mmHg 40%
    15:00 +23°C° 0 mm 2 mps 653 mmHg 42%
    16:00 +21°C° 0 mm 2 mps 653 mmHg 45%
    17:00 +21°C° 0 mm 1 mps 652 mmHg 54%
    18:00 +19°C° 0 mm 1 mps 652 mmHg 64%
    19:00 +16°C° 0 mm 1 mps 652 mmHg 73%
    20:00 +15°C° 0 mm 1 mps 652 mmHg 74%
    21:00 +15°C° 0 mm 1 mps 652 mmHg 76%
    22:00 +15°C° 0 mm 1 mps 652 mmHg 77%
    23:00 +15°C° 0 mm 1 mps 652 mmHg 79%

    19 September, Thursday

    Time Temperature Precipitation Wind Pressure Humidity
    00:00 +14°C° 0 mm 2 mps 652 mmHg 80%
    01:00 +14°C° 0 mm 2 mps 651 mmHg 81%
    02:00 +14°C° 0 mm 2 mps 651 mmHg 83%
    03:00 +13°C° 0 mm 2 mps 651 mmHg 84%
    04:00 +13°C° 0 mm 2 mps 650 mmHg 85%
    05:00 +14°C° 0 mm 2 mps 651 mmHg 80%
    06:00 +15°C° 0 mm 2 mps 651 mmHg 75%
    07:00 +16°C° 0 mm 2 mps 651 mmHg 71%
    08:00 +17°C° 0.1 mm 3 mps 652 mmHg 64%
    09:00 +19°C° 0.1 mm 3 mps 652 mmHg 57%
    10:00 +20°C° 0.1 mm 3 mps 653 mmHg 50%
    11:00 +20°C° 1.1 mm 3 mps 652 mmHg 52%
    12:00 +21°C° 1.1 mm 3 mps 652 mmHg 53%
    13:00 +21°C° 1.1 mm 3 mps 652 mmHg 54%
    14:00 +20°C° 1 mm 2 mps 652 mmHg 56%
    15:00 +20°C° 1 mm 2 mps 651 mmHg 57%
    16:00 +19°C° 1 mm 2 mps 651 mmHg 58%
    17:00 +19°C° 0.4 mm 1 mps 651 mmHg 66%
    18:00 +18°C° 0.4 mm 1 mps 651 mmHg 73%
    19:00 +14°C° 0.4 mm 0 mps 651 mmHg 81%
    20:00 +15°C° 0.2 mm 1 mps 651 mmHg 82%
    21:00 +14°C° 0.2 mm 1 mps 651 mmHg 82%
    22:00 +14°C° 0.2 mm 1 mps 651 mmHg 83%
    23:00 +14°C° 0.4 mm 1 mps 651 mmHg 85%

    20 September, Friday

    Time Temperature Precipitation Wind Pressure Humidity
    00:00 +14°C° 0.4 mm 1 mps 651 mmHg 86%
    01:00 +13°C° 0.4 mm 1 mps 651 mmHg 87%
    02:00 +13°C° 0.6 mm 1 mps 651 mmHg 87%
    03:00 +13°C° 0.6 mm 1 mps 651 mmHg 86%
    04:00 +13°C° 0.6 mm 1 mps 650 mmHg 86%
    05:00 +14°C° 0.3 mm 1 mps 651 mmHg 84%
    06:00 +14°C° 0.3 mm 1 mps 651 mmHg 82%
    07:00 +14°C° 0.3 mm 2 mps 651 mmHg 80%
    08:00 +15°C° 0.5 mm 2 mps 651 mmHg 76%
    09:00 +14°C° 0.5 mm 3 mps 652 mmHg 72%
    10:00 +16°C° 0.5 mm 3 mps 653 mmHg 67%
    11:00 +15°C° 0.6 mm 4 mps 653 mmHg 69%
    12:00 +14°C° 0.6 mm 4 mps 652 mmHg 70%
    13:00 +14°C° 0.6 mm 5 mps 652 mmHg 71%
    14:00 +13°C° 0.2 mm 5 mps 652 mmHg 71%
    15:00 +13°C° 0.2 mm 5 mps 652 mmHg 72%
    16:00 +12°C° 0.2 mm 4 mps 652 mmHg 72%
    17:00 +11°C° 0 mm 4 mps 652 mmHg 75%
    18:00 +10°C° 0 mm 4 mps 652 mmHg 77%
    19:00 +8°C° 0 mm 4 mps 652 mmHg 80%
    20:00 +7°C° 0 mm 4 mps 652 mmHg 78%
    21:00 +6°C° 0 mm 4 mps 652 mmHg 76%
    22:00 +7°C° 0 mm 3 mps 652 mmHg 74%
    23:00 +5°C° 0 mm 3 mps 652 mmHg 73%
    Show more